Torna al catalogo

CZ-4C DEB

AttivoLEO
NORAD 43420·DEBRIS·🇨🇳 China

Lanciato Dec 10, 2014 da Jiuquan Satellite Launch Center

Loading…

Prossimi Passaggi (prossime 24 ore)

TLE

AggiornatoSource: Space-Track

Epoca: Sep 13, 2026, 09:51 UTC

1 43420U 14080J   26256.41067047  .00000964  00000-0  99697-3 0  9998
2 43420  63.3848  42.0197 0370580  12.0832 348.8792 13.54482821566960

Traccia CZ-4C DEB in tempo reale con AllMySat

Download on the App Store